Location: Arbon
(43.0005°N, 0.7472°E)
Time: 04:16:50
(UTC+00:00)

Vanguard 3 - Visible Passes

Search period start: 04 August 2021 00:00
Search period end: 14 August 2021 00:00
Orbit: 508 x 3261 km, 33.4° (Epoch: 03 August)

Date Brightness Start Highest point End Pass type
(mag) Time Alt. Az. Time Alt. Az. Time Alt. Az.
04 Aug 10.8 00:31:34 10° W 00:41:09 19° SW 00:41:09 19° SW visible
04 Aug 10.2 20:56:02 10° W 21:13:13 53° SSW 21:25:51 25° SE visible
04 Aug 10.5 23:12:20 10° W 23:27:44 30° SW 23:30:20 29° SSW visible
05 Aug 10.2 19:40:36 10° W 19:56:25 59° S 20:15:04 11° ESE visible
05 Aug 10.3 21:55:06 10° W 22:11:48 41° SSW 22:19:33 31° S visible
06 Aug 11.0 00:14:54 10° W 00:24:02 17° SW 00:24:02 17° SW visible
06 Aug 10.3 20:39:03 10° W 20:55:20 50° SSW 21:08:50 22° SE visible
06 Aug 10.6 22:55:17 10° W 23:09:48 27° SW 23:13:19 26° SSW visible
07 Aug 10.2 19:23:50 10° W 19:38:41 57° SSW 19:57:52 10° ESE visible
07 Aug 10.5 21:38:06 10° W 21:53:53 38° SSW 22:02:39 27° S visible
07 Aug 11.1 23:58:48 10° WSW 00:07:08 14° SW 00:07:08 14° SW visible
08 Aug 10.4 20:22:12 10° W 20:37:30 47° SSW 20:52:02 19° SE visible
08 Aug 10.8 22:38:30 10° W 22:51:54 24° SW 22:56:32 22° SSW visible
09 Aug 10.2 19:07:11 10° W 19:21:02 54° SSW 19:39:54 10° SE visible
09 Aug 10.6 21:21:17 10° W 21:36:00 34° SSW 21:45:59 23° S visible
09 Aug 11.2 23:43:49 10° WSW 23:49:27 12° SW 23:50:29 12° SW visible
10 Aug 10.4 20:05:31 10° W 20:19:46 43° SSW 20:35:30 15° SE visible
10 Aug 10.9 22:22:02 10° W 22:34:03 21° SW 22:40:00 18° SSW visible
11 Aug 10.7 21:04:42 10° W 21:18:13 31° SSW 21:29:35 18° S visible
12 Aug 10.5 19:48:59 10° W 20:02:08 39° SSW 20:19:13 10° SE visible
12 Aug 11.1 22:06:01 10° WSW 22:16:18 18° SW 22:23:45 14° SSW visible
13 Aug 10.9 20:48:20 10° W 21:00:32 27° SW 21:13:28 13° S visible
